Regional Weather Roundup
Issued by NWS

Home | Current Version | Previous Version | Text Only | Print | Product List | Glossary Off
Versions: 1 2 3 4 5 6 7 8 9 10 11 12 13 14 15 16 17 18 19 20 21 22 23 24 25 26 27 28 29 30 31 32 33 34 35 36 37 38 39 40 41 42 43 44 45 46 47 48 49 50

000
ASUS43 KBIS 160602
RWRND

NORTH DAKOTA REGIONAL WEATHER ROUNDUP
NATIONAL WEATHER SERVICE BISMARCK ND
1200 AM CST MON JAN 16 2017

NOTE: "FAIR" INDICATES FEW OR NO CLOUDS BELOW 12,000 FEET WITH NO
SIGNIFICANT WEATHER AND/OR OBSTRUCTIONS TO VISIBILITY.


NDZ001>003-009>011-017-160700-
NORTHWEST NORTH DAKOTA

CITY           SKY/WX    TMP DP  RH WIND       PRES   REMARKS
WILLISTON      FAIR      12   5  73 SW6       30.02R WCI   3
6HR MIN TEMP:   9; 6HR MAX TEMP:  16;

MINOT          FAIR      21  10  62 SW12      29.98R WCI   9
$$

NDZ018>021-031>035-040>046-160700-
SOUTHWEST NORTH DAKOTA

CITY           SKY/WX    TMP DP  RH WIND       PRES   REMARKS
BISMARCK       FAIR      -1  -5  82 CALM      30.06R
6HR MIN TEMP:  -4; 6HR MAX TEMP:   6;

DICKINSON      FAIR      16   5  62 W14       30.00R WCI   2
GARRISON         N/A     10   4  76 SW5       30.01R WCI   2
6HR MIN TEMP:   2; 6HR MAX TEMP:  15;

HETTINGER ARPT CLOUDY    12   5  73 W5        30.06R WCI   4
$$

NDZ004>008-012>016-024-026-027-054-160700-
NORTHEAST NORTH DAKOTA

CITY           SKY/WX    TMP DP  RH WIND       PRES   REMARKS
GRAND FORKS    CLOUDY     8   2  76 S10       30.05R WCI  -6
GRND FRKS AFB  CLEAR      8   2  77 S10       30.04R WCI  -7
DEVILS LAKE    FAIR      11   5  77 SW7       30.00S WCI   0
$$

NDZ022-023-025-028>030-036>039-047>053-160700-
SOUTHEAST NORTH DAKOTA

CITY           SKY/WX    TMP DP  RH WIND       PRES   REMARKS
FARGO          CLEAR     13  10  88 S13       30.08S WCI  -2
6HR MIN TEMP:  13; 6HR MAX TEMP:  20;

JAMESTOWN      FAIR       6   1  80 S7        30.03S WCI  -6
$$





USA.gov is the U.S. government's official web portal to all federal, state and local government web resources and services.